Location: Buckhorn Peak
(37.6641°N, 120.1241°W)
Time: 10:38:43
(UTC+00:00)

Envisat - Pass Details

Date: 08 October 2024
Orbit: 761 x 763 km, 98.3° (Epoch: 05 November)

Event Time Altitude Azimuth Distance (km) Brightness Sun altitude
Rises 11:19:07 0° 9° (N) 3,232 6.6 -32.8°
Reaches altitude 10° 11:21:26 10° 8° (N) 2,302 5.7 -32.4°
Enters shadow 11:23:09 22° 4° (N) 1,641 4.9 -32.0°
